GFSSGP_500_spd_210.txt.gz
Wind_Speed
19 17 17 16 15 13 4 15 23 24 20 13 15 27 35 24 25 24 34 13 9 6 3 4 7 12 11 11 12 11 12 13 14 14 14 15 14 13 12 11 11 11 12 12 12 13 13 13 12
20 19 17 17 14 14 15 22 17 33 22 19 17 31 32 20 23 15 12 14 11 10 8 6 6 6 9 12 12 13 14 14 14 15 17 17 15 15 14 14 13 13 12 12 13 13 13 13 13
22 20 19 18 16 9 22 22 27 26 23 21 26 25 32 25 26 21 21 16 17 17 16 15 14 12 12 12 13 14 15 16 16 17 17 18 18 16 15 13 14 15 15 14 13 13 14 15 15
22 24 23 22 20 14 12 17 11 24 25 24 25 30 26 28 27 25 24 25 23 20 21 20 20 20 18 17 14 15 15 17 17 18 18 18 18 18 17 15 14 16 17 17 17 16 16 17 17
25 24 28 27 21 16 21 30 11 16 24 24 22 34 26 24 27 25 25 29 29 19 25 25 25 23 21 20 20 20 18 18 19 19 20 20 20 19 19 19 19 19 19 20 19 19 20 20 21
21 19 12 26 15 14 24 21 28 19 26 24 25 28 35 28 27 26 27 25 15 27 20 29 26 26 26 25 26 25 25 24 23 23 23 23 23 23 24 23 22 22 23 23 23 23 23 24 24
18 17 7 3 15 26 29 12 19 21 29 29 19 23 39 27 15 27 30 28 31 35 21 26 27 31 31 35 33 32 30 30 29 28 28 28 27 26 26 27 26 25 24 25 26 26 26 26 27
16 17 13 6 9 25 24 16 17 23 31 29 26 32 38 29 27 31 32 32 34 38 41 32 30 31 38 52 28 30 31 33 33 33 34 33 32 31 31 30 30 28 27 27 27 28 29 29 29
14 12 9 8 19 25 23 19 20 18 26 27 26 30 35 33 32 32 34 33 35 39 40 39 40 41 45 44 31 32 38 38 39 36 34 35 36 37 36 35 34 33 31 30 29 30 30 31 31
18 18 19 26 34 23 27 29 27 28 31 31 33 30 34 34 36 36 36 37 38 41 42 40 43 44 46 46 40 36 40 43 44 38 35 37 38 40 40 40 40 39 37 36 34 33 32 33 33
17 20 30 25 26 26 32 33 28 31 27 34 31 34 34 35 36 39 38 40 43 44 45 46 43 48 48 44 47 43 47 52 20 37 42 40 42 43 44 45 43 43 42 42 41 39 38 37 36
22 24 23 25 24 26 26 26 26 24 25 27 29 31 32 34 35 36 39 38 39 41 44 45 45 47 49 45 43 50 52 59 47 48 44 41 46 46 48 43 48 47 47 45 45 45 45 43 41
13 13 15 16 17 17 15 15 15 17 16 18 20 23 24 27 30 33 34 36 35 38 38 40 41 41 44 45 41 39 45 48 48 47 30 52 49 45 43 47 50 55 53 52 50 48 48 47 47
7 8 8 8 6 5 11 16 20 20 20 20 22 25 25 27 30 29 32 33 34 37 39 38 40 40 42 43 44 44 44 45 47 46 46 48 46 50 54 40 49 55 57 58 58 54 53 50 49
7 9 8 9 9 11 14 20 30 29 29 28 30 32 29 32 37 37 34 36 37 36 37 40 45 46 47 49 49 49 49 48 46 46 47 50 51 43 49 50 52 50 54 57 57 60 61 58 55
10 12 16 21 24 20 20 22 28 39 44 44 44 43 39 39 41 42 40 44 42 42 41 42 44 45 47 49 50 51 49 48 47 45 46 48 50 47 49 49 47 47 50 52 57 58 61 64 62
15 4 6 11 23 35 31 31 32 35 40 43 47 50 50 49 49 50 45 49 49 49 48 48 47 47 47 47 47 47 47 47 46 44 45 48 49 44 45 52 49 51 54 55 53 55 60 64 65
16 17 20 23 26 34 36 37 38 39 42 44 49 51 54 51 52 53 52 51 51 52 53 52 52 52 51 50 48 47 45 45 45 45 45 47 51 49 38 49 49 49 52 54 56 56 59 61 65
13 17 22 25 31 36 40 42 42 41 40 40 49 48 47 50 51 52 52 52 51 51 50 51 51 51 51 51 50 49 47 47 45 44 44 47 47 52 49 47 47 50 46 47 50 54 55 58 60
15 20 24 26 33 39 41 42 40 36 39 39 41 37 41 45 48 49 50 51 51 51 51 48 48 49 49 50 50 49 48 49 48 46 46 44 47 46 48 53 55 42 48 43 49 52 54 57 60
18 25 27 33 36 38 41 40 36 30 34 36 37 42 43 41 47 48 46 49 52 52 53 53 48 49 51 50 49 48 48 48 47 47 46 44 44 43 45 47 54 56 46 48 50 54 56 54 54
23 28 33 36 39 39 37 39 25 18 29 29 48 51 56 62 61 58 56 54 50 51 54 56 52 47 50 51 50 48 45 44 44 44 43 43 42 43 43 47 43 49 47 50 52 54 52 53 53
26 31 35 37 37 37 28 25 12 22 22 30 30 33 34 45 56 66 65 62 60 56 52 54 54 47 45 49 49 48 46 43 40 40 41 43 43 42 45 62 60 43 42 43 47 46 51 43 45
30 34 36 39 36 20 15 24 21 22 29 34 39 39 40 43 49 63 62 57 52 55 50 52 49 52 48 48 48 47 47 45 43 42 44 41 41 53 50 44 52 42 39 39 33 30 30 32 37
32 38 38 40 35 28 25 32 29 34 36 41 47 52 55 57 56 56 50 48 65 41 50 53 49 45 45 45 47 45 46 46 45 46 44 40 36 22 26 43 40 42 36 40 36 32 31 33 35
34 37 35 39 39 39 37 21 29 36 45 51 58 59 58 53 49 47 43 62 41 36 41 45 49 38 20 43 41 42 41 43 44 44 46 46 46 49 43 28 42 33 34 34 32 33 31 33 36
35 34 32 36 38 40 40 30 20 40 45 48 49 45 43 35 35 47 57 65 47 45 44 41 37 39 34 39 32 35 36 41 43 42 43 45 48 47 45 34 27 30 32 32 33 34 34 35 37
38 38 37 36 41 46 42 40 22 34 42 50 53 56 53 50 53 58 55 55 50 42 37 35 31 34 40 25 24 29 33 39 45 43 43 42 43 38 37 24 27 29 29 32 35 35 37 34 36
34 32 31 35 37 39 46 41 33 36 34 39 32 32 34 38 37 37 38 40 36 32 25 32 28 28 27 25 26 27 32 36 43 40 36 41 34 34 24 23 27 26 28 35 40 41 38 36 38
35 33 36 41 43 47 46 43 32 26 35 39 42 40 39 40 39 37 34 33 33 32 27 26 26 26 32 29 28 29 34 37 41 56 56 42 38 29 27 26 28 29 32 35 36 37 38 39 40

GFSSGP_500_spd_216.txt.gz
Wind_Speed
24 23 20 17 19 18 11 7 11 13 21 21 25 20 12 18 17 18 20 17 15 2 5 4 3 4 4 4 6 6 7 8 9 10 12 11 11 11 11 10 11 12 12 13 15 16 17 17 18
25 24 22 20 22 27 20 9 15 21 25 27 29 25 22 17 14 17 17 14 5 9 9 8 7 2 4 5 7 8 9 10 11 12 13 14 12 13 13 13 12 13 13 13 14 15 17 18 19
26 24 23 22 24 28 28 14 11 22 30 33 29 27 24 18 14 14 21 24 19 13 8 11 10 7 8 10 11 11 11 11 13 14 14 16 15 14 15 16 16 15 15 15 15 15 16 18 19
27 23 21 24 25 28 29 22 18 20 24 29 27 24 18 19 19 18 20 19 18 12 4 7 10 14 15 16 16 16 17 16 16 17 18 18 19 17 17 17 18 19 18 17 18 18 18 19 20
28 26 23 25 28 32 29 22 16 17 26 27 24 20 16 19 21 21 24 27 28 22 15 16 16 16 19 21 20 20 21 21 19 20 22 23 24 24 21 20 20 21 21 20 20 21 21 21 21
25 26 24 25 34 36 34 30 14 13 25 28 27 25 26 25 26 25 28 29 25 16 13 19 18 22 25 24 23 20 23 24 26 25 24 26 28 28 26 26 25 24 24 24 24 23 23 24 25
23 21 26 23 22 19 25 30 25 14 13 22 25 23 24 27 32 31 30 25 26 26 19 23 20 20 24 25 25 28 29 27 27 30 31 27 26 28 30 31 30 30 29 28 28 28 28 27 27
21 26 16 21 17 18 18 22 17 10 13 21 26 25 24 26 27 37 33 24 24 26 28 26 25 25 24 22 25 29 31 31 31 27 27 32 30 33 32 29 32 35 33 31 31 32 32 32 32
13 14 20 24 22 24 22 20 8 11 19 20 23 24 26 27 26 33 30 30 28 29 32 33 32 31 32 31 32 33 34 35 33 38 36 38 37 37 38 33 31 34 35 35 35 35 35 36 35
12 16 20 17 17 17 19 17 13 20 24 22 24 25 25 25 24 25 31 29 28 28 30 34 36 37 38 37 38 39 39 37 37 39 41 39 42 41 41 35 35 37 38 39 38 38 38 38 39
13 16 14 12 11 14 16 16 16 19 21 22 21 27 25 28 22 19 24 26 26 26 26 30 34 37 40 43 43 41 43 43 42 41 39 40 44 48 45 40 39 38 42 41 41 42 41 41 41
16 16 13 13 17 15 20 20 17 14 14 10 17 21 24 23 25 24 22 26 27 27 28 28 32 36 39 42 44 44 42 43 42 41 40 40 44 45 47 36 43 45 49 47 45 46 44 44 47
15 12 13 12 15 18 17 19 11 9 10 16 21 25 27 27 28 29 29 27 28 30 33 35 36 37 39 39 42 44 43 42 43 43 43 43 44 42 45 43 42 45 46 47 46 46 47 44 45
8 8 8 12 12 11 11 10 10 15 17 20 23 26 29 30 31 30 30 30 32 35 37 37 36 37 39 40 42 45 47 48 46 46 45 45 45 46 45 45 45 47 47 47 49 52 49 51 52
12 11 11 11 9 11 10 13 16 20 23 25 27 25 24 24 28 30 26 30 34 36 38 40 42 41 40 40 42 45 48 50 51 51 50 48 47 48 48 48 48 48 49 49 50 49 48 49 50
11 10 10 10 11 14 16 16 19 20 25 27 29 33 33 33 37 41 42 43 39 35 35 38 40 42 43 44 45 45 46 48 51 52 53 53 50 49 48 47 44 45 48 49 50 51 50 50 50
11 12 12 14 14 13 12 13 21 27 30 33 35 39 41 42 41 41 43 44 38 34 35 38 39 42 44 45 46 46 48 48 47 51 52 53 54 51 51 49 43 42 45 46 49 50 51 51 51
13 13 12 14 14 14 19 22 26 30 32 33 33 36 36 38 41 44 45 44 43 40 37 35 37 43 44 47 49 50 49 51 51 47 48 51 52 52 51 48 46 43 44 46 49 51 52 53 53
16 14 12 14 16 20 25 27 30 32 34 32 31 32 37 40 45 50 53 55 53 47 47 46 45 44 42 44 48 48 53 52 53 54 49 48 49 50 48 46 45 46 47 47 47 49 49 55 58
15 11 13 14 17 21 25 26 33 34 33 37 34 38 41 43 48 53 56 55 56 54 53 53 53 54 55 54 50 47 50 54 54 54 54 51 49 48 47 45 45 45 46 45 46 46 46 56 45
12 13 14 17 18 23 26 28 30 32 35 35 36 39 45 50 55 57 59 58 58 61 66 70 71 68 70 65 59 56 49 52 55 58 55 54 52 51 48 47 47 47 46 45 45 44 44 45 38
15 14 17 18 21 25 29 30 30 32 33 33 35 40 44 51 57 59 65 66 67 67 67 69 71 71 78 71 77 71 66 57 45 54 58 56 53 52 50 49 48 50 48 48 47 46 50 55 47
15 18 17 20 24 25 30 31 32 33 32 33 36 40 45 51 56 62 67 69 65 64 67 74 74 74 72 74 71 67 57 47 39 44 51 57 54 52 52 50 49 49 49 48 47 47 53 55 57
19 21 22 26 27 30 30 31 36 30 31 37 41 47 53 59 60 62 60 59 65 70 72 68 65 69 63 60 59 59 51 38 47 53 51 50 54 52 53 50 48 49 50 46 48 50 51 53 48
24 27 28 30 33 30 26 33 31 34 37 36 35 39 44 49 55 57 60 63 65 66 67 62 55 59 61 52 55 52 50 54 47 48 49 43 51 52 53 53 49 46 47 52 46 53 43 55 48
25 30 32 36 37 37 34 34 35 34 38 41 43 46 47 46 45 47 51 54 54 52 54 57 56 55 52 52 42 38 33 32 31 37 41 38 39 50 54 54 51 50 44 36 36 38 37 36 23
29 30 34 38 39 40 38 37 36 35 41 45 47 49 48 47 43 40 39 41 42 48 52 51 50 49 46 43 50 34 37 36 33 38 36 31 39 46 47 54 53 50 45 51 38 27 30 32 15
34 33 34 36 40 40 38 37 39 37 40 46 48 47 46 42 42 39 37 38 42 47 49 50 49 45 44 40 41 38 39 36 33 34 34 35 33 34 41 46 50 51 53 53 47 38 29 29 25
33 35 38 38 37 38 41 39 39 42 45 46 46 45 42 37 36 37 40 37 42 46 49 46 46 47 47 44 44 45 40 38 38 37 35 32 32 32 31 34 42 48 48 46 40 34 27 27 28
36 34 34 33 34 36 38 41 40 46 46 46 45 41 37 35 38 43 40 42 43 47 50 48 46 43 43 42 42 45 47 37 35 35 37 36 35 33 33 30 29 33 40 41 36 35 33 29 29

GFSSGP_500_spd_219.txt.gz
Wind_Speed
23 21 17 17 19 18 16 13 12 12 12 13 13 14 14 18 20 21 19 12 6 3 8 10 8 7 4 5 4 5 6 7 7 8 8 9 10 11 10 11 12 13 12 13 15 15 16 18 19
26 24 19 18 21 20 20 15 10 11 15 16 14 15 17 21 18 19 18 16 13 15 15 9 4 1 2 2 3 5 6 8 10 10 11 12 12 12 12 12 14 15 16 16 16 16 16 17 19
30 26 22 20 24 20 19 18 10 12 12 14 16 14 14 14 14 17 18 24 23 14 13 4 7 8 9 10 8 8 9 12 12 14 14 15 16 16 16 15 16 17 17 17 18 18 18 18 19
31 27 23 23 27 25 26 24 20 16 16 15 17 16 12 10 11 15 14 18 20 22 23 28 18 14 20 15 14 14 14 14 16 17 17 18 18 19 20 21 20 19 20 20 19 19 20 20 21
29 27 25 26 26 27 28 24 20 11 9 12 16 18 18 15 17 17 15 15 16 16 18 14 20 19 18 14 16 19 19 16 19 21 22 21 21 21 22 23 25 24 23 24 24 23 22 22 23
24 29 28 29 27 25 27 28 21 12 13 10 12 17 14 15 18 17 16 13 14 15 17 15 21 19 19 19 20 20 22 24 25 24 22 26 26 26 26 26 26 27 27 28 27 28 27 25 25
21 25 30 28 25 25 26 29 32 25 19 14 16 23 22 20 19 19 18 17 15 15 17 15 15 23 18 17 22 24 25 29 30 29 29 28 28 29 28 29 31 30 30 31 32 32 31 30 29
19 21 27 25 26 16 17 13 13 28 28 14 19 22 26 27 24 22 21 21 19 20 23 21 21 25 24 22 24 27 29 31 33 33 30 32 30 27 30 30 30 34 35 33 33 35 35 34 33
14 20 22 23 26 24 19 18 16 19 14 16 20 21 22 21 21 21 20 18 19 19 22 24 25 28 27 28 30 30 32 34 35 36 36 37 36 39 38 36 35 35 38 35 34 36 39 39 39
10 16 21 20 17 19 18 20 15 14 17 20 22 18 20 18 14 12 16 16 15 15 17 23 26 29 32 32 35 36 35 34 35 37 39 40 41 42 42 42 38 37 38 39 40 40 39 41 43
4 7 8 9 12 17 13 14 17 17 17 17 16 17 17 19 21 21 19 20 19 19 21 23 28 30 30 33 34 35 36 36 37 38 37 37 40 42 43 43 43 42 44 43 43 43 43 45 46
11 10 10 11 13 16 20 17 18 14 10 10 14 17 20 23 26 26 25 24 22 25 29 30 31 33 36 37 37 39 40 38 37 37 40 39 38 38 39 41 44 44 47 44 43 45 46 46 47
14 12 13 15 19 20 19 19 16 7 8 13 18 20 23 26 28 29 29 28 28 33 32 33 35 36 38 40 43 44 46 47 47 44 41 41 42 43 42 42 44 44 47 45 45 48 49 49 48
18 20 19 17 18 18 15 14 12 8 11 18 23 25 26 26 26 25 26 26 30 34 34 34 34 37 41 42 44 46 49 51 52 52 50 47 45 45 48 48 48 48 49 49 48 48 50 51 53
16 16 16 14 14 13 12 12 12 13 19 22 26 26 26 26 27 31 32 32 32 32 33 33 31 35 33 34 37 42 47 51 54 57 57 57 54 50 50 50 50 50 51 52 52 52 52 53 54
13 11 13 10 11 12 14 16 13 19 23 24 26 28 28 29 31 35 37 38 36 32 30 30 28 27 29 32 35 38 42 46 51 52 55 57 58 58 56 54 53 52 51 50 50 53 56 56 53
11 12 12 11 13 15 14 15 21 22 21 24 29 31 34 37 39 40 41 39 38 37 38 37 35 36 37 39 41 41 42 48 51 53 54 55 57 56 56 56 54 54 52 51 54 53 46 50 51
16 17 16 14 15 14 16 18 17 20 24 27 30 33 35 40 42 42 40 41 43 45 46 45 41 42 45 46 48 46 47 48 49 53 55 55 56 59 56 55 54 54 53 52 53 54 63 55 52
18 20 21 17 12 15 18 18 21 23 29 31 33 36 40 39 41 41 42 46 49 51 52 52 52 52 53 52 54 60 63 62 61 56 55 54 58 58 58 55 55 53 52 53 53 53 54 55 54
20 20 18 15 16 19 22 23 26 29 30 31 36 39 40 41 41 42 44 49 53 56 57 58 60 60 58 61 65 67 62 58 55 58 57 57 51 58 57 56 55 55 54 53 54 53 54 52 51
22 20 16 14 19 22 24 25 29 30 33 35 36 39 41 40 42 43 48 53 58 61 65 66 65 65 67 69 67 59 58 60 59 61 61 55 56 54 57 56 56 58 55 55 55 55 54 52 51
22 18 17 18 19 22 26 27 29 33 36 37 38 39 39 41 42 46 51 58 64 66 65 65 67 69 72 62 56 60 59 61 64 66 53 47 45 45 52 54 56 59 57 57 56 55 54 51 51
20 18 19 20 22 25 29 33 35 35 36 37 38 40 41 43 47 51 56 59 59 60 63 63 66 66 56 57 60 63 65 63 62 59 57 46 43 43 40 43 50 57 58 56 56 52 52 52 50
20 21 23 24 25 28 31 36 37 34 35 38 39 38 37 39 44 47 51 57 62 63 62 64 65 58 58 61 64 62 60 57 56 53 54 47 47 44 44 42 44 51 57 56 54 55 52 52 50
21 24 26 29 31 31 34 38 36 37 38 38 35 34 39 42 44 47 50 55 57 58 58 56 53 55 56 59 58 58 56 58 52 52 46 41 37 42 33 35 43 50 55 56 55 56 56 51 49
23 27 29 33 36 38 34 38 38 37 38 38 38 41 43 44 45 46 47 49 51 51 50 45 49 52 50 50 51 51 52 56 50 43 40 37 37 39 33 34 36 42 50 54 54 54 51 45 44
25 28 31 37 40 44 43 41 40 38 40 40 42 45 47 47 46 45 45 48 49 49 46 49 49 50 51 51 51 50 51 49 51 49 44 47 41 39 37 33 34 40 40 48 54 54 49 37 32
29 33 35 36 42 45 44 42 40 42 42 44 46 46 45 45 46 47 47 48 48 50 48 48 49 52 52 51 49 49 50 50 46 48 44 43 41 37 36 33 32 33 34 41 44 50 53 49 39
33 38 38 38 39 43 44 41 41 43 44 44 45 45 46 47 48 50 52 52 53 54 51 49 49 53 54 55 58 55 53 52 50 43 43 41 37 33 35 34 31 29 27 28 37 43 47 48 33
36 34 36 40 40 39 40 43 43 44 43 45 45 47 48 49 50 52 54 54 54 54 53 51 50 53 56 60 59 56 54 58 53 41 39 36 36 32 30 30 25 27 27 24 25 32 35 37 33

GFSSGP_500_spd_222.txt.gz
Wind_Speed
21 18 17 19 18 15 17 17 14 12 9 10 13 12 14 15 14 16 15 8 3 8 6 5 5 6 5 3 2 2 2 3 4 6 5 5 6 8 8 9 9 10 11 12 12 13 15 16 17
24 21 18 20 21 16 15 16 15 9 11 14 12 12 13 14 13 12 9 11 12 15 12 8 6 5 6 8 8 6 5 6 7 9 10 9 10 10 11 11 11 12 12 13 15 15 16 17 18
27 25 21 22 23 20 17 16 15 13 13 13 13 15 14 16 15 13 10 11 14 12 14 19 3 10 9 14 17 15 15 14 12 12 12 13 13 14 14 14 14 14 15 16 16 17 17 18 18
27 27 24 25 25 22 20 15 16 18 19 18 20 20 12 10 10 11 12 14 14 11 9 11 14 16 12 15 19 20 18 19 19 17 17 17 18 19 19 18 17 18 18 19 19 20 20 19 20
22 26 27 26 27 28 22 16 8 13 18 21 17 10 7 8 10 7 10 11 12 16 12 14 12 12 9 12 16 23 22 21 21 21 19 22 22 23 23 23 23 22 22 21 22 23 23 24 23
21 24 28 27 26 25 24 22 19 18 14 5 10 10 10 12 11 7 7 8 10 13 15 12 14 11 11 17 23 24 26 23 23 26 24 22 24 26 28 28 28 27 28 28 26 26 26 28 27
20 23 29 29 26 27 23 20 16 14 25 15 13 6 13 15 12 7 6 11 11 12 15 16 12 20 20 24 25 27 28 26 26 27 29 29 28 30 29 33 34 32 32 32 34 32 31 30 31
14 18 26 24 23 23 15 18 13 12 18 19 9 12 16 18 14 11 8 10 12 15 19 21 20 22 25 29 29 28 30 32 31 30 31 31 33 31 31 30 32 34 33 33 34 37 39 36 35
9 15 19 24 19 20 23 14 12 12 9 14 14 12 14 10 10 10 10 10 11 15 20 21 22 26 28 31 32 32 34 30 33 35 35 35 37 37 36 36 37 41 38 38 38 39 40 41 41
4 10 15 18 16 14 17 18 20 16 13 17 16 11 4 6 8 10 11 12 13 14 18 21 26 27 28 30 32 33 32 33 36 36 36 38 38 39 40 41 41 42 43 42 40 40 41 44 44
3 2 6 12 15 14 16 16 15 15 16 16 13 9 10 11 11 14 17 18 20 21 22 24 26 29 32 32 32 35 37 38 36 37 38 39 40 40 40 40 42 43 44 44 42 41 43 46 46
7 6 7 8 10 14 17 18 19 19 17 15 14 15 18 20 22 25 25 25 27 27 27 28 29 30 32 35 39 39 40 42 44 44 42 41 41 41 42 40 41 42 44 45 46 47 47 50 52
12 12 12 14 17 19 20 21 20 19 17 12 14 17 21 24 26 26 26 25 27 30 32 32 32 33 34 36 38 42 44 46 48 50 52 50 47 45 45 45 44 43 45 46 48 48 48 49 51
14 15 18 21 22 22 21 20 17 14 15 17 18 21 24 27 27 28 28 27 28 26 18 17 22 27 32 37 41 43 45 49 51 52 54 57 57 55 52 50 49 49 48 48 52 52 53 52 53
13 17 21 21 21 21 18 16 13 12 19 20 23 27 28 30 31 31 30 33 31 25 25 26 23 22 26 32 38 43 47 50 54 55 58 58 59 60 59 56 54 54 53 52 51 53 56 56 58
13 12 14 14 14 15 15 16 11 13 19 22 24 25 27 28 29 31 32 31 30 31 33 34 35 35 35 34 34 39 43 49 53 57 59 62 63 62 62 62 59 56 57 57 57 56 56 57 58
14 12 11 12 14 17 17 17 16 20 24 23 23 26 29 31 34 36 36 36 35 36 38 40 42 42 44 45 43 44 46 49 50 55 59 61 63 64 66 65 64 63 59 59 59 58 59 57 60
17 15 15 16 19 20 18 20 21 19 18 22 24 29 32 35 36 38 38 40 39 40 42 45 48 50 52 55 54 54 52 50 52 52 51 55 58 62 65 68 70 67 65 61 60 60 60 60 62
19 19 19 20 22 22 23 22 20 19 20 25 30 33 35 37 38 39 41 41 43 44 48 50 53 56 59 60 59 55 52 54 57 52 47 47 50 54 58 65 69 73 70 66 62 62 60 59 60
23 23 22 22 24 25 25 21 20 21 24 28 32 35 37 39 41 42 42 44 45 48 51 55 57 59 63 64 60 57 59 59 53 48 47 48 49 51 56 58 64 69 70 70 66 65 62 59 60
23 24 23 23 25 25 24 23 22 25 28 31 34 35 37 40 41 43 45 46 49 53 56 58 59 62 64 62 60 61 62 56 51 49 49 51 52 52 49 54 56 57 69 67 66 66 64 60 60
23 24 24 25 24 24 22 25 26 29 34 37 37 38 40 42 44 45 46 47 51 54 57 60 62 65 65 63 62 63 60 58 56 50 49 51 52 48 47 52 52 52 48 58 61 61 63 61 59
22 21 23 23 22 23 25 28 30 33 36 38 39 41 42 43 44 45 46 49 51 54 58 61 65 66 66 64 64 61 58 59 61 58 52 50 48 47 45 47 44 44 41 42 56 57 50 55 57
22 24 24 23 23 25 28 33 35 36 36 38 40 42 42 45 45 46 48 49 53 55 59 62 65 65 65 63 64 60 60 59 60 58 54 50 46 43 40 38 36 37 47 42 46 56 57 57 58
22 24 26 25 26 28 32 36 34 37 39 38 41 40 43 44 45 45 47 50 52 55 60 61 63 63 61 60 60 59 59 57 57 56 51 50 47 41 40 37 35 41 40 39 42 45 55 53 55
22 23 25 31 31 33 33 38 39 39 38 40 40 42 41 43 44 46 49 50 53 56 59 60 62 62 59 56 57 58 57 56 56 55 54 49 48 42 39 42 39 37 37 34 35 41 43 52 51
23 25 28 32 35 39 41 40 41 39 39 40 41 43 44 46 50 51 51 53 54 56 57 58 58 58 58 57 57 57 57 56 59 56 54 53 47 43 41 40 37 33 30 32 33 37 37 43 48
28 30 31 33 40 43 45 45 42 39 38 42 44 45 48 52 54 55 55 56 56 57 58 59 59 58 56 56 56 54 54 57 59 55 53 52 49 46 42 36 33 32 28 26 29 33 35 37 40
33 35 36 38 40 43 46 45 40 41 43 43 47 50 53 55 56 56 56 57 58 59 60 61 60 58 54 54 53 51 54 55 51 51 48 45 41 40 35 31 28 28 28 27 26 27 30 34 38
34 35 37 39 40 41 41 43 41 43 44 46 47 51 53 55 55 55 57 57 60 61 61 58 56 54 53 51 48 49 50 48 39 40 37 33 30 25 25 26 25 25 24 20 24 25 26 32 33